WetterOnline ( https://www.wetteronline.de )

Wetter aktuell Riesengebirge

Aktuelles Wetter: Pec Pod Snezkou (820m)

6-stündlich | Neueste Meldungen
Ortszeit Temperatur Wetter
Di, 04.08. 20:00 10.9° C bedeckt
Di, 04.08. 14:00 11.6° C bedeckt
Di, 04.08. 8:00 11.1° C leichter Regen
Di, 04.08. 2:00 12.6° C -
Mo, 03.08. 20:00 12.1° C bewölkt
Mo, 03.08. 14:00 13.9° C leichter Regen
Mo, 03.08. 8:00 14.1° C leichter Regen
Mo, 03.08. 2:00 14.3° C starker Regen
Ortszeit Temperatur Wetter
Mi, 05.08. 1:00 9.8° C -
Mi, 05.08. 0:00 9.8° C -
Di, 04.08. 23:00 9.9° C -
Di, 04.08. 22:00 9.8° C bedeckt
Di, 04.08. 21:00 9.8° C bedeckt, nach Regen
Di, 04.08. 20:00 10.9° C bedeckt, nach Regen
Ortszeit Relative Feuchte Sichtweite
Di, 04.08. 20:00 86% 10 km
Di, 04.08. 14:00 81% 10 km
Di, 04.08. 8:00 92% 5.0 km
Di, 04.08. 2:00 92% 19 km
Mo, 03.08. 20:00 88% 8 km
Mo, 03.08. 14:00 86% 5.0 km
Mo, 03.08. 8:00 96% 3.0 km
Mo, 03.08. 2:00 97% 2.5 km
Ortszeit Relative Feuchte Sichtweite
Mi, 05.08. 1:00 95% 35 km
Mi, 05.08. 0:00 95% 35 km
Di, 04.08. 23:00 93% 35 km
Di, 04.08. 22:00 93% 10 km
Di, 04.08. 21:00 90% 10 km
Di, 04.08. 20:00 86% 10 km
Ortszeit Niederschlagsmenge Niederschlagsart
Di, 04.08. 20:00 5 l/m2 in 12 Std. Regen
Di, 04.08. 14:00 3 l/m2 in 6 Std. Regen
Di, 04.08. 8:00 3 l/m2 in 12 Std. -
Di, 04.08. 2:00 0.3 l/m2 in 6 Std. Sprühregen
Mo, 03.08. 20:00 15 l/m2 in 12 Std. Regen
Mo, 03.08. 14:00 13 l/m2 in 6 Std. Regen
Mo, 03.08. 8:00 36 l/m2 in 12 Std. -
Mo, 03.08. 2:00 18 l/m2 in 6 Std. Schauer
Ortszeit Niederschlagsmenge Niederschlagsart
Mi, 05.08. 1:00 0.0 l/m2 in 1 Std. -
Mi, 05.08. 0:00 0.0 l/m2 in 1 Std. -
Di, 04.08. 23:00 0.0 l/m2 in 1 Std. Regenschauer
Di, 04.08. 22:00 0.0 l/m2 in 1 Std. -
Di, 04.08. 21:00 0.2 l/m2 in 1 Std. Regen
Di, 04.08. 20:00 0.4 l/m2 in 1 Std. Regen
Ortszeit Stärke Spitze Richtung
km/h Bft. km/h Grad Sektor
Di, 04.08. 20:00 7 2 40 uml. uml.
Di, 04.08. 14:00 11 2 43 310° NW
Di, 04.08. 8:00 11 2 - 10° N
Di, 04.08. 2:00 7 2 - uml. uml.
Mo, 03.08. 20:00 7 2 40 uml. uml.
Mo, 03.08. 14:00 7 2 - - -
Mo, 03.08. 8:00 4 1 - uml. uml.
Mo, 03.08. 2:00 0 0 - - -
Ortszeit Stärke Spitze Richtung
km/h Bft. km/h Grad Sektor
Mi, 05.08. 1:00 4 1 - - -
Mi, 05.08. 0:00 7 2 - 210° SW
Di, 04.08. 23:00 4 1 - uml. uml.
Di, 04.08. 22:00 4 1 - - -
Di, 04.08. 21:00 4 1 - 170° S
Di, 04.08. 20:00 7 2 40 uml. uml.
Ortszeit Untergrenze Bedeckung Gattung
total tief tief mittel hoch
Di, 04.08. 20:00 540 m 8/8 1/8 Sc As -
Di, 04.08. 14:00 360 m 8/8 6/8 Sc Ns -
Di, 04.08. 8:00 270 m 8/8 8/8 St - -
Di, 04.08. 2:00 180 m - 8/8 - - -
Mo, 03.08. 20:00 450 m 7/8 5/8 Sc Ac -
Mo, 03.08. 14:00 450 m 8/8 8/8 Sc - -
Mo, 03.08. 8:00 240 m 8/8 8/8 St - -
Mo, 03.08. 2:00 480 m - 8/8 - - -
Ortszeit Bedeckungsgrad in Achtel und Wolkenuntergrenze
Mi, 05.08. 1:00 6(1800m) 8(2400m)
Mi, 05.08. 0:00 1(840m) 8(2100m)
Di, 04.08. 23:00 8(1500m)
Di, 04.08. 22:00 1(840m) 8(1800m)
Di, 04.08. 21:00 1(540m) 8(1800m)
Di, 04.08. 20:00 1(540m) 8(1800m)
Ortszeit Stationsdruck (hPa) Tendenz (hPa in 3 Std.)
Di, 04.08. 20:00 922 + 1,8
Di, 04.08. 14:00 918 + 1,8
Di, 04.08. 8:00 916 + 0,6
Di, 04.08. 2:00 916 - 0,4
Mo, 03.08. 20:00 916 + 0,2
Mo, 03.08. 14:00 917 - 0,4
Mo, 03.08. 8:00 917 - 0,6
Mo, 03.08. 2:00 919 - 1,0
Ortszeit Stationsdruck (hPa) Tendenz (hPa in 3 Std.)
Mi, 05.08. 1:00 924 + 0,5
Mi, 05.08. 0:00 924 + 0,8
Di, 04.08. 23:00 924 + 1,4
Di, 04.08. 22:00 924 + 1,8
Di, 04.08. 21:00 923 + 2,0
Di, 04.08. 20:00 922 + 1,8
Ortszeit Schneehöhe (cm)
Di, 04.08. 20:00 -
Di, 04.08. 14:00 -
Di, 04.08. 8:00 -
Di, 04.08. 2:00 -
Mo, 03.08. 20:00 -
Mo, 03.08. 14:00 -
Mo, 03.08. 8:00 -
Mo, 03.08. 2:00 -
Ortszeit Schneehöhe (cm)
Mi, 05.08. 1:00 -
Mi, 05.08. 0:00 -
Di, 04.08. 23:00 -
Di, 04.08. 22:00 -
Di, 04.08. 21:00 -
Di, 04.08. 20:00 -
Link zu dieser Seite / Seite empfehlen

Das Wetter in ...